Weather History for KEED - October, 2013

Change the Weather History Date:

Tuesday, October 1, 2013

  Actual Average Record
Temperature  
Mean Temperature 80 °F -  
Max Temperature 96 °F 95 °F 108 °F (1978)
Min Temperature 64 °F 68 °F 54 °F (1982)
Cooling Degree Days 15    
Growing Degree Days 30 (Base 50)    
Moisture  
Dew Point 31 °F    
Average Humidity 18    
Maximum Humidity 28    
Minimum Humidity 8    
Precipitation  
Precipitation 0.00 in - - ()
Sea Level Pressure  
Sea Level Pressure 29.76 in    
Wind  
Wind Speed 4 mph (WSW)    
Max Wind Speed 16 mph    
Max Gust Speed 22 mph    
Visibility 10 miles    
Events      
Averages and records for this station are not official NWS values.
T = Trace of Precipitation, MM = Missing Value Source: NWS Daily Summary

Daily Weather History Graph

Daily Weather History Graph

Search for Another Location

Airport or City:

Trip Planner

Search our weather history database for the weather conditions in past years. The results will help you decide how hot, cold, wet, or windy it might be!

Date:

Astronomy

Oct. 01, 2013 Rise Set
Actual Time 6:33 AM PDT 6:22 PM PDT
Civil Twilight 6:08 AM PDT 6:47 PM PDT
Nautical Twilight 5:38 AM PDT 7:16 PM PDT
Astronomical Twilight 5:09 AM PDT 7:45 PM PDT
Moon 3:18 AM PDT (10/1) 4:22 PM PDT (10/1)
Length of Visible Light 12h 38m
Length of Day
11h 48m
Waning Crescent, 11% of the Moon is Illuminated
Oct 1
Waning Crescent
Oct 4
New
Oct 11
First Quarter
Oct 18
Full
Oct 26
Last Quarter

Hourly Weather History & Observations

Time (PDT) Temp. Dew Point Humidity Pressure Visibility Wind Dir Wind Speed Gust Speed Precip Events Conditions
12:56 AM 71.1 °F 28.9 °F 21% 29.75 in 10.0 mi Calm Calm - N/A   Clear
1:56 AM 70.0 °F 30.0 °F 23% 29.76 in 10.0 mi Calm Calm - N/A   Clear
2:56 AM 68.0 °F 30.0 °F 24% 29.75 in 10.0 mi WNW 6.9 mph - N/A   Clear
3:56 AM 68.0 °F 30.0 °F 24% 29.76 in 10.0 mi NW 5.8 mph - N/A   Clear
4:56 AM 66.0 °F 30.0 °F 26% 29.77 in 10.0 mi Calm Calm - N/A   Clear
5:56 AM 64.9 °F 30.0 °F 27% 29.79 in 10.0 mi NNW 5.8 mph - N/A   Clear
6:56 AM 64.9 °F 30.9 °F 28% 29.80 in 10.0 mi NNW 4.6 mph - N/A   Clear
7:56 AM 71.1 °F 34.0 °F 26% 29.81 in 10.0 mi North 3.5 mph - N/A   Clear
8:56 AM 77.0 °F 33.1 °F 20% 29.82 in 10.0 mi Calm Calm - N/A   Clear
9:56 AM 81.0 °F 33.1 °F 18% 29.83 in 10.0 mi Calm Calm - N/A   Clear
10:56 AM 86.0 °F 37.9 °F 18% 29.82 in 10.0 mi ENE 4.6 mph - N/A   Clear
11:56 AM 90.0 °F 39.9 °F 17% 29.80 in 10.0 mi Calm Calm - N/A   Clear
12:56 PM 93.9 °F 37.0 °F 14% 29.77 in 10.0 mi Variable 4.6 mph - N/A   Clear
1:56 PM 93.9 °F 28.0 °F 10% 29.75 in 10.0 mi SSW 16.1 mph 21.9 mph N/A   Clear
2:56 PM 96.1 °F 28.0 °F 9% 29.73 in 10.0 mi SW 11.5 mph - N/A   Clear
3:56 PM 95.0 °F 27.0 °F 9% 29.71 in 10.0 mi SSW 10.4 mph - N/A   Clear
4:56 PM 95.0 °F 25.0 °F 8% 29.70 in 10.0 mi SSW 11.5 mph - N/A   Clear
5:56 PM 93.0 °F 26.1 °F 9% 29.71 in 10.0 mi SSW 8.1 mph - N/A   Clear
6:56 PM 89.1 °F 27.0 °F 11% 29.71 in 10.0 mi SSW 8.1 mph - N/A   Clear
7:56 PM 84.9 °F 28.0 °F 13% 29.72 in 10.0 mi SW 9.2 mph - N/A   Clear
8:56 PM 86.0 °F 33.1 °F 15% 29.72 in 10.0 mi SW 11.5 mph - N/A   Clear
9:56 PM 81.0 °F 34.0 °F 18% 29.74 in 10.0 mi SSE 3.5 mph - N/A   Clear
11:56 PM 78.1 °F 35.1 °F 21% 29.74 in 10.0 mi Calm Calm - N/A   Clear